Time,TemperatureF,DewpointF,PressureIn,WindDirection,WindDirectionDegrees,WindSpeedMPH,WindSpeedGustMPH,Humidity,HourlyPrecipIn,Conditions,Clouds,dailyrainin,SoftwareType,DateUTC
2018-01-23 00:00:00,25.2,24.0,30.51,NNW,338,0.0,0.0,95,0.00,,,0.00,WeatherCatV2.44B2,2018-01-23 08:00:00,
2018-01-23 00:05:00,25.2,24.0,30.51,NNW,338,0.0,0.0,95,0.00,,,0.00,WeatherCatV2.44B2,2018-01-23 08:05:00,
2018-01-23 00:10:00,25.0,23.8,30.51,NNW,338,0.0,0.0,95,0.00,,,0.00,WeatherCatV2.44B2,2018-01-23 08:10:00,
2018-01-23 00:15:00,25.0,23.8,30.51,NNW,338,0.0,0.0,95,0.00,,,0.00,WeatherCatV2.44B2,2018-01-23 08:15:00,
2018-01-23 00:20:00,25.2,24.2,30.51,NNW,338,0.0,0.0,96,0.00,,,0.00,WeatherCatV2.44B2,2018-01-23 08:20:00,
2018-01-23 00:25:00,25.2,24.2,30.51,NNW,338,0.0,0.0,96,0.00,,,0.00,WeatherCatV2.44B2,2018-01-23 08:25:00,
2018-01-23 00:30:00,25.2,24.2,30.50,NNW,338,0.0,0.0,96,0.00,,,0.00,WeatherCatV2.44B2,2018-01-23 08:30:00,
2018-01-23 00:40:00,25.1,23.9,30.50,NNW,338,0.0,0.0,95,0.00,,,0.00,WeatherCatV2.44B2,2018-01-23 08:40:00,
2018-01-23 00:45:00,25.1,23.9,30.50,NNW,338,0.0,0.0,95,0.00,,,0.00,WeatherCatV2.44B2,2018-01-23 08:45:00,
2018-01-23 00:50:00,25.0,23.8,30.50,NNW,338,0.0,0.0,95,0.00,,,0.00,WeatherCatV2.44B2,2018-01-23 08:50:00,
2018-01-23 01:00:00,25.1,24.1,30.49,NNW,338,0.0,0.0,96,0.00,,,0.00,WeatherCatV2.44B2,2018-01-23 09:00:00,
2018-01-23 01:05:00,25.1,24.1,30.49,NNW,338,0.0,0.0,96,0.00,,,0.00,WeatherCatV2.44B2,2018-01-23 09:05:00,
2018-01-23 01:10:00,25.3,24.3,30.49,NNW,338,0.0,0.0,96,0.00,,,0.00,WeatherCatV2.44B2,2018-01-23 09:10:00,
2018-01-23 01:15:00,25.3,24.3,30.49,NNW,338,0.0,0.0,96,0.00,,,0.00,WeatherCatV2.44B2,2018-01-23 09:15:00,
2018-01-23 01:20:00,25.2,24.2,30.49,NNW,338,0.0,0.0,96,0.00,,,0.00,WeatherCatV2.44B2,2018-01-23 09:20:00,
2018-01-23 01:25:00,25.2,24.2,30.49,NNW,338,0.0,0.0,96,0.00,,,0.00,WeatherCatV2.44B2,2018-01-23 09:25:00,
2018-01-23 01:35:00,25.1,23.9,30.49,NNW,338,0.0,0.0,95,0.00,,,0.00,WeatherCatV2.44B2,2018-01-23 09:35:00,
2018-01-23 01:40:00,25.0,23.8,30.49,NNW,338,0.0,0.0,95,0.00,,,0.00,WeatherCatV2.44B2,2018-01-23 09:40:00,
2018-01-23 01:45:00,25.0,23.8,30.49,NNW,338,0.0,0.0,95,0.00,,,0.00,WeatherCatV2.44B2,2018-01-23 09:45:00,
2018-01-23 01:50:00,24.8,23.6,30.50,NNW,338,0.0,0.0,95,0.00,,,0.00,WeatherCatV2.44B2,2018-01-23 09:50:00,
2018-01-23 01:55:00,24.8,23.6,30.50,NNW,338,0.0,0.0,95,0.00,,,0.00,WeatherCatV2.44B2,2018-01-23 09:55:00,
2018-01-23 02:00:00,24.6,23.4,30.49,NNW,338,0.0,0.0,95,0.00,,,0.00,WeatherCatV2.44B2,2018-01-23 10:00:00,
2018-01-23 02:05:00,24.6,23.4,30.49,NNW,338,0.0,0.0,95,0.00,,,0.00,WeatherCatV2.44B2,2018-01-23 10:05:00,
2018-01-23 02:10:00,24.5,23.3,30.49,NNW,338,0.0,0.0,95,0.00,,,0.00,WeatherCatV2.44B2,2018-01-23 10:10:00,
2018-01-23 02:20:00,24.5,23.3,30.49,NNW,338,0.0,0.0,95,0.00,,,0.00,WeatherCatV2.44B2,2018-01-23 10:20:00,
2018-01-23 02:25:00,24.5,23.3,30.49,NNW,338,0.0,0.0,95,0.00,,,0.00,WeatherCatV2.44B2,2018-01-23 10:25:00,
2018-01-23 02:30:00,24.5,23.3,30.49,NNW,338,0.0,0.0,95,0.00,,,0.00,WeatherCatV2.44B2,2018-01-23 10:30:00,
2018-01-23 02:35:00,24.5,23.3,30.49,NNW,338,0.0,0.0,95,0.00,,,0.00,WeatherCatV2.44B2,2018-01-23 10:35:00,
2018-01-23 02:40:00,24.4,23.2,30.49,NNW,338,0.0,0.0,95,0.00,,,0.00,WeatherCatV2.44B2,2018-01-23 10:40:00,
2018-01-23 02:45:00,24.4,23.2,30.49,NNW,338,0.0,0.0,95,0.00,,,0.00,WeatherCatV2.44B2,2018-01-23 10:45:00,
2018-01-23 02:50:00,24.6,23.6,30.49,NNW,338,0.0,0.0,96,0.00,,,0.00,WeatherCatV2.44B2,2018-01-23 10:50:00,
2018-01-23 02:55:00,24.6,23.6,30.49,NNW,338,0.0,0.0,96,0.00,,,0.00,WeatherCatV2.44B2,2018-01-23 10:55:00,
2018-01-23 03:00:00,24.7,23.7,30.49,NNW,338,0.0,0.0,96,0.00,,,0.00,WeatherCatV2.44B2,2018-01-23 11:00:00,
2018-01-23 03:15:00,24.9,23.9,30.49,NNW,338,0.0,0.0,96,0.00,,,0.00,WeatherCatV2.44B2,2018-01-23 11:15:00,
2018-01-23 03:30:00,25.3,24.3,30.48,NNW,338,0.0,0.0,96,0.00,,,0.00,WeatherCatV2.44B2,2018-01-23 11:30:00,
2018-01-23 03:35:00,25.3,24.3,30.48,NNW,338,0.0,0.0,96,0.00,,,0.00,WeatherCatV2.44B2,2018-01-23 11:35:00,
2018-01-23 03:40:00,25.6,24.6,30.47,NNW,338,0.0,0.0,96,0.00,,,0.00,WeatherCatV2.44B2,2018-01-23 11:40:00,
2018-01-23 03:45:00,25.6,24.6,30.47,NNW,338,0.0,0.0,96,0.00,,,0.00,WeatherCatV2.44B2,2018-01-23 11:45:00,
2018-01-23 03:50:00,25.7,24.7,30.46,NNW,338,0.0,0.0,96,0.00,,,0.00,WeatherCatV2.44B2,2018-01-23 11:50:00,
2018-01-23 03:55:00,25.7,24.7,30.46,NNW,338,0.0,0.0,96,0.00,,,0.00,WeatherCatV2.44B2,2018-01-23 11:55:00,
2018-01-23 04:00:00,25.9,24.9,30.45,NNW,338,0.0,0.0,96,0.00,,,0.00,WeatherCatV2.44B2,2018-01-23 12:00:00,
2018-01-23 04:05:00,25.9,24.9,30.45,NNW,338,0.0,0.0,96,0.00,,,0.00,WeatherCatV2.44B2,2018-01-23 12:05:00,
2018-01-23 04:10:00,26.2,25.2,30.45,NNW,338,0.0,0.0,96,0.00,,,0.00,WeatherCatV2.44B2,2018-01-23 12:10:00,
2018-01-23 04:15:00,26.2,25.2,30.45,NNW,338,0.0,0.0,96,0.00,,,0.00,WeatherCatV2.44B2,2018-01-23 12:15:00,
2018-01-23 04:20:00,26.2,25.2,30.45,NNW,338,0.0,0.0,96,0.00,,,0.00,WeatherCatV2.44B2,2018-01-23 12:20:00,
2018-01-23 04:25:00,26.2,25.2,30.45,NNW,338,0.0,0.0,96,0.00,,,0.00,WeatherCatV2.44B2,2018-01-23 12:25:00,
2018-01-23 04:30:00,26.1,25.1,30.45,NNW,338,0.0,0.0,96,0.00,,,0.00,WeatherCatV2.44B2,2018-01-23 12:30:00,
2018-01-23 04:35:00,26.1,25.1,30.45,NNW,338,0.0,0.0,96,0.00,,,0.00,WeatherCatV2.44B2,2018-01-23 12:35:00,
2018-01-23 04:45:00,25.9,24.7,30.45,NNW,338,0.0,0.0,95,0.00,,,0.00,WeatherCatV2.44B2,2018-01-23 12:45:00,
2018-01-23 04:50:00,25.8,24.6,30.45,NNW,338,0.0,0.0,95,0.00,,,0.00,WeatherCatV2.44B2,2018-01-23 12:50:00,
2018-01-23 04:55:00,25.8,24.6,30.45,NNW,338,0.0,0.0,95,0.00,,,0.00,WeatherCatV2.44B2,2018-01-23 12:55:00,
2018-01-23 05:00:00,25.5,24.3,30.45,NNW,338,0.0,0.0,95,0.00,,,0.00,WeatherCatV2.44B2,2018-01-23 13:00:00,
2018-01-23 05:10:00,25.3,24.1,30.45,NNW,338,0.0,0.0,95,0.00,,,0.00,WeatherCatV2.44B2,2018-01-23 13:10:00,
2018-01-23 05:15:00,25.3,24.1,30.45,NNW,338,0.0,0.0,95,0.00,,,0.00,WeatherCatV2.44B2,2018-01-23 13:15:00,
2018-01-23 05:20:00,25.2,24.0,30.44,NNW,338,0.0,0.0,95,0.00,,,0.00,WeatherCatV2.44B2,2018-01-23 13:20:00,
2018-01-23 05:25:00,25.2,24.0,30.44,NNW,338,0.0,0.0,95,0.00,,,0.00,WeatherCatV2.44B2,2018-01-23 13:25:00,
2018-01-23 05:30:00,24.9,23.7,30.44,NNW,338,0.0,0.0,95,0.00,,,0.00,WeatherCatV2.44B2,2018-01-23 13:30:00,
2018-01-23 05:35:00,24.9,23.7,30.44,NNW,338,0.0,0.0,95,0.00,,,0.00,WeatherCatV2.44B2,2018-01-23 13:35:00,
2018-01-23 05:40:00,24.7,23.5,30.44,NNW,338,0.0,0.0,95,0.00,,,0.00,WeatherCatV2.44B2,2018-01-23 13:40:00,
2018-01-23 05:45:00,24.7,23.5,30.44,NNW,338,0.0,0.0,95,0.00,,,0.00,WeatherCatV2.44B2,2018-01-23 13:45:00,
2018-01-23 05:50:00,24.8,23.6,30.44,NNW,338,0.0,0.0,95,0.00,,,0.00,WeatherCatV2.44B2,2018-01-23 13:50:00,
2018-01-23 05:55:00,24.8,23.6,30.44,NNW,338,0.0,0.0,95,0.00,,,0.00,WeatherCatV2.44B2,2018-01-23 13:55:00,
2018-01-23 06:00:00,25.1,24.1,30.44,NNW,338,0.0,0.0,96,0.00,,,0.00,WeatherCatV2.44B2,2018-01-23 14:00:00,
2018-01-23 06:05:00,25.1,24.1,30.44,NNW,338,0.0,0.0,96,0.00,,,0.00,WeatherCatV2.44B2,2018-01-23 14:05:00,
2018-01-23 06:10:00,25.4,24.4,30.43,NNW,338,0.0,0.0,96,0.00,,,0.00,WeatherCatV2.44B2,2018-01-23 14:10:00,
2018-01-23 06:15:00,25.4,24.4,30.43,NNW,338,0.0,0.0,96,0.00,,,0.00,WeatherCatV2.44B2,2018-01-23 14:15:00,
2018-01-23 06:26:00,25.8,24.8,30.43,NNW,327,0.0,0.0,96,0.00,,,0.00,WeatherCatV2.44B2,2018-01-23 14:26:00,
2018-01-23 06:31:00,26.1,25.1,30.44,NNW,327,0.0,0.0,96,0.00,,,0.00,WeatherCatV2.44B2,2018-01-23 14:31:00,
2018-01-23 06:36:00,26.2,25.2,30.44,NNW,327,0.0,0.0,96,0.00,,,0.00,WeatherCatV2.44B2,2018-01-23 14:36:00,
2018-01-23 06:46:00,26.4,25.4,30.43,NNW,327,0.0,0.0,96,0.00,,,0.00,WeatherCatV2.44B2,2018-01-23 14:46:00,
2018-01-23 06:51:00,26.5,25.5,30.43,NNW,327,0.0,0.0,96,0.00,,,0.00,WeatherCatV2.44B2,2018-01-23 14:51:00,
2018-01-23 06:56:00,26.6,25.6,30.44,NNW,327,0.0,0.0,96,0.00,,,0.00,WeatherCatV2.44B2,2018-01-23 14:56:00,
2018-01-23 07:01:00,26.7,25.7,30.44,NNW,327,0.0,0.0,96,0.00,,,0.00,WeatherCatV2.44B2,2018-01-23 15:01:00,
2018-01-23 07:06:00,26.8,25.8,30.44,NNW,327,0.0,0.0,96,0.00,,,0.00,WeatherCatV2.44B2,2018-01-23 15:06:00,
2018-01-23 07:16:00,27.0,26.0,30.44,NNW,327,0.0,0.0,96,0.00,,,0.00,WeatherCatV2.44B2,2018-01-23 15:16:00,
2018-01-23 07:21:00,27.0,26.0,30.44,NNW,327,0.0,0.0,96,0.00,,,0.00,WeatherCatV2.44B2,2018-01-23 15:21:00,
2018-01-23 07:26:00,27.1,26.1,30.45,NNW,327,0.0,0.0,96,0.00,,,0.00,WeatherCatV2.44B2,2018-01-23 15:26:00,
2018-01-23 07:31:00,27.2,26.2,30.44,NNW,327,0.0,0.0,96,0.00,,,0.00,WeatherCatV2.44B2,2018-01-23 15:31:00,
2018-01-23 07:36:00,27.3,26.3,30.45,NNW,327,0.0,0.0,96,0.00,,,0.00,WeatherCatV2.44B2,2018-01-23 15:36:00,
2018-01-23 07:41:00,27.4,26.4,30.45,NNW,327,0.0,0.0,96,0.00,,,0.00,WeatherCatV2.44B2,2018-01-23 15:41:00,
2018-01-23 07:46:00,27.5,26.5,30.45,NNW,327,0.0,0.0,96,0.00,,,0.00,WeatherCatV2.44B2,2018-01-23 15:46:00,
2018-01-23 07:51:00,27.7,26.7,30.45,NNW,327,0.0,0.0,96,0.00,,,0.00,WeatherCatV2.44B2,2018-01-23 15:51:00,
2018-01-23 07:56:00,27.9,26.9,30.45,NNW,327,0.0,0.0,96,0.00,,,0.00,WeatherCatV2.44B2,2018-01-23 15:56:00,
2018-01-23 07:58:00,27.9,26.9,30.45,NNW,327,0.0,0.0,96,0.00,,,0.00,WeatherCatV2.44B2,2018-01-23 15:58:00,
2018-01-23 08:03:00,28.1,27.4,30.45,NNW,327,0.0,0.0,97,0.00,,,0.00,WeatherCatV2.44B2,2018-01-23 16:03:00,
2018-01-23 08:08:00,28.3,27.6,30.45,NNW,327,0.0,0.0,97,0.00,,,0.00,WeatherCatV2.44B2,2018-01-23 16:08:00,
2018-01-23 08:13:00,28.5,27.8,30.45,NNW,327,0.0,0.0,97,0.00,,,0.00,WeatherCatV2.44B2,2018-01-23 16:13:00,
2018-01-23 08:18:00,28.7,28.0,30.45,NNW,327,0.0,0.0,97,0.00,,,0.00,WeatherCatV2.44B2,2018-01-23 16:18:00,
2018-01-23 08:23:00,29.0,28.3,30.45,NNW,327,0.0,0.0,97,0.00,,,0.00,WeatherCatV2.44B2,2018-01-23 16:23:00,
2018-01-23 08:28:00,29.2,28.5,30.45,NNW,327,0.0,0.0,97,0.00,,,0.00,WeatherCatV2.44B2,2018-01-23 16:28:00,
2018-01-23 08:33:00,29.4,28.7,30.46,NNW,327,0.0,0.0,97,0.00,,,0.00,WeatherCatV2.44B2,2018-01-23 16:33:00,
2018-01-23 08:38:00,29.5,28.8,30.45,NNW,327,0.0,0.0,97,0.00,,,0.00,WeatherCatV2.44B2,2018-01-23 16:38:00,
2018-01-23 08:43:00,29.6,28.9,30.46,NNW,327,0.0,0.0,97,0.00,,,0.00,WeatherCatV2.44B2,2018-01-23 16:43:00,
2018-01-23 08:48:00,29.7,29.0,30.45,NNW,327,0.0,0.0,97,0.00,,,0.00,WeatherCatV2.44B2,2018-01-23 16:48:00,
2018-01-23 08:53:00,30.0,29.2,30.45,NNW,327,0.0,0.0,97,0.00,,,0.00,WeatherCatV2.44B2,2018-01-23 16:53:00,
2018-01-23 08:55:00,30.1,29.4,30.45,NNW,327,0.0,0.0,97,0.00,,,0.00,WeatherCatV2.44B2,2018-01-23 16:55:00,
2018-01-23 09:05:00,30.6,29.9,30.45,NNW,327,0.0,0.0,97,0.00,,,0.00,WeatherCatV2.44B2,2018-01-23 17:05:00,
2018-01-23 09:10:00,31.0,30.2,30.45,NNW,327,0.0,0.0,97,0.00,,,0.00,WeatherCatV2.44B2,2018-01-23 17:10:00,
2018-01-23 09:25:00,31.9,31.1,30.46,NNW,327,0.0,0.0,97,0.00,,,0.00,WeatherCatV2.44B2,2018-01-23 17:25:00,
2018-01-23 09:45:00,32.8,32.0,30.46,ENE,77,0.0,0.0,97,0.00,,,0.00,WeatherCatV2.44B2,2018-01-23 17:45:00,
2018-01-23 09:50:00,33.0,32.2,30.47,SE,132,0.0,3.0,97,0.00,,,0.00,WeatherCatV2.44B2,2018-01-23 17:50:00,
2018-01-23 09:55:00,33.4,32.6,30.47,SE,132,0.0,0.0,97,0.00,,,0.00,WeatherCatV2.44B2,2018-01-23 17:55:00,
2018-01-23 10:00:00,33.8,33.0,30.47,SSW,209,0.0,0.0,97,0.00,,,0.00,WeatherCatV2.44B2,2018-01-23 18:00:00,
2018-01-23 10:05:00,34.3,33.5,30.47,WSW,242,1.0,3.0,97,0.00,,,0.00,WeatherCatV2.44B2,2018-01-23 18:05:00,
2018-01-23 10:10:00,34.8,34.0,30.47,ESE,122,0.0,3.0,97,0.00,,,0.00,WeatherCatV2.44B2,2018-01-23 18:10:00,
2018-01-23 10:15:00,35.2,34.4,30.47,SE,146,0.0,2.0,97,0.00,,,0.00,WeatherCatV2.44B2,2018-01-23 18:15:00,
2018-01-23 10:20:00,35.7,34.9,30.47,SSE,147,0.0,2.0,97,0.00,,,0.00,WeatherCatV2.44B2,2018-01-23 18:20:00,
2018-01-23 10:25:00,36.0,35.2,30.47,SE,144,2.0,4.0,97,0.00,,,0.00,WeatherCatV2.44B2,2018-01-23 18:25:00,
2018-01-23 10:35:00,36.5,35.7,30.47,SE,144,0.0,2.0,97,0.00,,,0.00,WeatherCatV2.44B2,2018-01-23 18:35:00,
2018-01-23 10:40:00,36.8,36.0,30.47,East,100,1.0,3.0,97,0.00,,,0.00,WeatherCatV2.44B2,2018-01-23 18:40:00,
2018-01-23 10:45:00,37.2,36.4,30.46,SSE,162,0.0,1.0,97,0.00,,,0.00,WeatherCatV2.44B2,2018-01-23 18:45:00,
2018-01-23 10:50:00,37.7,36.9,30.47,SSW,192,2.0,7.0,97,0.00,,,0.00,WeatherCatV2.44B2,2018-01-23 18:50:00,
2018-01-23 10:55:00,38.0,37.2,30.47,SW,233,1.0,3.0,97,0.00,,,0.00,WeatherCatV2.44B2,2018-01-23 18:55:00,
2018-01-23 11:00:00,38.3,37.3,30.46,South,186,1.0,2.0,96,0.00,,,0.00,WeatherCatV2.44B2,2018-01-23 19:00:00,
2018-01-23 11:05:00,38.5,36.4,30.46,NNE,27,3.0,4.0,92,0.00,,,0.00,WeatherCatV2.44B2,2018-01-23 19:05:00,
2018-01-23 11:10:00,38.8,36.4,30.46,East,93,4.0,10.0,91,0.00,,,0.00,WeatherCatV2.44B2,2018-01-23 19:10:00,
2018-01-23 11:15:00,39.2,36.0,30.45,WSW,246,2.0,6.0,88,0.00,,,0.00,WeatherCatV2.44B2,2018-01-23 19:15:00,
2018-01-23 11:20:00,39.5,35.7,30.44,SE,136,3.0,12.0,86,0.00,,,0.00,WeatherCatV2.44B2,2018-01-23 19:20:00,
2018-01-23 11:30:00,40.1,35.7,30.44,East,85,8.0,12.0,84,0.00,,,0.00,WeatherCatV2.44B2,2018-01-23 19:30:00,
2018-01-23 11:35:00,40.4,36.2,30.44,SSE,151,4.0,9.0,85,0.00,,,0.00,WeatherCatV2.44B2,2018-01-23 19:35:00,
2018-01-23 11:40:00,40.6,36.2,30.44,SW,235,2.0,5.0,84,0.00,,,0.00,WeatherCatV2.44B2,2018-01-23 19:40:00,
2018-01-23 11:45:00,40.8,36.0,30.43,East,90,0.0,4.0,83,0.00,,,0.00,WeatherCatV2.44B2,2018-01-23 19:45:00,
2018-01-23 11:55:00,41.5,36.4,30.42,SSW,201,6.0,7.0,82,0.00,,,0.00,WeatherCatV2.44B2,2018-01-23 19:55:00,
2018-01-23 12:00:00,41.9,36.5,30.42,ESE,110,2.0,2.0,81,0.00,,,0.00,WeatherCatV2.44B2,2018-01-23 20:00:00,
2018-01-23 12:05:00,42.1,36.1,30.42,South,190,5.0,11.0,79,0.00,,,0.00,WeatherCatV2.44B2,2018-01-23 20:05:00,
2018-01-23 12:10:00,42.1,36.1,30.41,East,79,2.0,11.0,79,0.00,,,0.00,WeatherCatV2.44B2,2018-01-23 20:10:00,
2018-01-23 12:15:00,42.0,35.7,30.42,SW,231,2.0,12.0,78,0.00,,,0.01,WeatherCatV2.44B2,2018-01-23 20:15:00,
2018-01-23 12:20:00,42.0,36.0,30.41,ESE,118,3.0,8.0,79,0.00,,,0.01,WeatherCatV2.44B2,2018-01-23 20:20:00,
2018-01-23 12:25:00,42.0,36.0,30.41,SSW,204,2.0,9.0,79,0.00,,,0.01,WeatherCatV2.44B2,2018-01-23 20:25:00,
2018-01-23 12:30:00,41.9,35.9,30.41,ESE,107,1.0,8.0,79,0.00,,,0.01,WeatherCatV2.44B2,2018-01-23 20:30:00,
2018-01-23 12:35:00,41.6,35.6,30.41,East,92,3.0,10.0,79,0.00,,,0.01,WeatherCatV2.44B2,2018-01-23 20:35:00,
2018-01-23 12:45:00,41.4,35.7,30.40,NNE,25,1.0,7.0,80,0.00,,,0.01,WeatherCatV2.44B2,2018-01-23 20:45:00,
2018-01-23 12:55:00,41.4,35.7,30.39,SW,229,3.0,6.0,80,0.00,,,0.01,WeatherCatV2.44B2,2018-01-23 20:55:00,
2018-01-23 13:00:00,41.3,35.3,30.39,East,94,11.0,11.0,79,0.00,,,0.01,WeatherCatV2.44B2,2018-01-23 21:00:00,
2018-01-23 13:10:00,41.2,35.2,30.37,SSW,202,5.0,15.0,79,0.00,,,0.01,WeatherCatV2.44B2,2018-01-23 21:10:00,
2018-01-23 13:15:00,41.0,35.3,30.37,ENE,58,7.0,8.0,80,0.00,,,0.01,WeatherCatV2.44B2,2018-01-23 21:15:00,
2018-01-23 13:20:00,41.0,35.3,30.37,SSE,167,4.0,12.0,80,0.00,,,0.01,WeatherCatV2.44B2,2018-01-23 21:20:00,
2018-01-23 13:30:00,40.9,35.2,30.37,ESE,109,1.0,13.0,80,0.00,,,0.01,WeatherCatV2.44B2,2018-01-23 21:30:00,
2018-01-23 13:35:00,40.9,35.2,30.37,South,178,3.0,13.0,80,0.00,,,0.01,WeatherCatV2.44B2,2018-01-23 21:35:00,
2018-01-23 13:40:00,41.1,36.0,30.37,East,87,5.0,11.0,82,0.00,,,0.01,WeatherCatV2.44B2,2018-01-23 21:40:00,
2018-01-23 13:45:00,41.3,35.6,30.37,ESE,123,4.0,8.0,80,0.00,,,0.01,WeatherCatV2.44B2,2018-01-23 21:45:00,
2018-01-23 13:50:00,41.4,35.7,30.37,NE,36,1.0,4.0,80,0.00,,,0.01,WeatherCatV2.44B2,2018-01-23 21:50:00,
2018-01-23 13:55:00,41.4,35.7,30.37,East,98,3.0,10.0,80,0.00,,,0.01,WeatherCatV2.44B2,2018-01-23 21:55:00,
2018-01-23 14:00:00,41.4,36.0,30.37,SSE,157,2.0,5.0,81,0.00,,,0.01,WeatherCatV2.44B2,2018-01-23 22:00:00,
2018-01-23 14:05:00,41.4,36.0,30.37,East,101,3.0,11.0,81,0.00,,,0.01,WeatherCatV2.44B2,2018-01-23 22:05:00,
2018-01-23 14:10:00,41.5,36.4,30.36,ESE,109,2.0,9.0,82,0.00,,,0.01,WeatherCatV2.44B2,2018-01-23 22:10:00,
2018-01-23 14:15:00,41.3,35.9,30.37,SSE,155,2.0,9.0,81,0.00,,,0.01,WeatherCatV2.44B2,2018-01-23 22:15:00,
2018-01-23 14:20:00,41.0,35.6,30.37,ENE,61,8.0,12.0,81,0.00,,,0.01,WeatherCatV2.44B2,2018-01-23 22:20:00,
2018-01-23 14:25:00,40.7,35.3,30.36,West,262,2.0,14.0,81,0.00,,,0.01,WeatherCatV2.44B2,2018-01-23 22:25:00,
2018-01-23 14:30:00,40.5,35.1,30.36,South,182,2.0,9.0,81,0.00,,,0.01,WeatherCatV2.44B2,2018-01-23 22:30:00,
2018-01-23 14:35:00,40.5,35.5,30.36,SSW,199,2.0,2.0,82,0.00,,,0.01,WeatherCatV2.44B2,2018-01-23 22:35:00,
2018-01-23 14:40:00,40.6,35.2,30.37,ESE,103,3.0,10.0,81,0.00,,,0.01,WeatherCatV2.44B2,2018-01-23 22:40:00,
2018-01-23 14:45:00,40.8,35.7,30.36,South,176,2.0,10.0,82,0.00,,,0.01,WeatherCatV2.44B2,2018-01-23 22:45:00,
2018-01-23 14:55:00,40.7,35.3,30.36,ENE,78,5.0,5.0,81,0.00,,,0.01,WeatherCatV2.44B2,2018-01-23 22:55:00,
2018-01-23 15:00:00,40.7,35.3,30.36,East,85,4.0,5.0,81,0.00,,,0.01,WeatherCatV2.44B2,2018-01-23 23:00:00,
2018-01-23 15:05:00,40.6,35.2,30.36,South,182,3.0,13.0,81,0.00,,,0.01,WeatherCatV2.44B2,2018-01-23 23:05:00,
2018-01-23 15:15:00,40.4,35.0,30.36,ESE,112,0.0,5.0,81,0.00,,,0.01,WeatherCatV2.44B2,2018-01-23 23:15:00,
2018-01-23 15:20:00,40.4,35.0,30.36,SE,132,4.0,9.0,81,0.00,,,0.01,WeatherCatV2.44B2,2018-01-23 23:20:00,
2018-01-23 15:25:00,40.4,35.0,30.35,East,82,4.0,7.0,81,0.00,,,0.01,WeatherCatV2.44B2,2018-01-23 23:25:00,
2018-01-23 15:36:00,40.2,35.2,30.35,SE,131,8.0,8.0,82,0.00,,,0.01,WeatherCatV2.44B2,2018-01-23 23:36:00,
2018-01-23 15:41:00,40.0,35.0,30.35,ENE,67,3.0,10.0,82,0.00,,,0.01,WeatherCatV2.44B2,2018-01-23 23:41:00,
2018-01-23 15:51:00,39.9,34.9,30.35,East,96,12.0,12.0,82,0.00,,,0.01,WeatherCatV2.44B2,2018-01-23 23:51:00,
2018-01-23 15:56:00,39.8,35.1,30.35,SE,139,2.0,6.0,83,0.00,,,0.01,WeatherCatV2.44B2,2018-01-23 23:56:00,
2018-01-23 16:01:00,39.7,35.0,30.35,East,80,1.0,7.0,83,0.00,,,0.01,WeatherCatV2.44B2,2018-01-24 00:01:00,
2018-01-23 16:06:00,39.6,34.9,30.35,SE,144,2.0,10.0,83,0.00,,,0.01,WeatherCatV2.44B2,2018-01-24 00:06:00,
2018-01-23 16:11:00,39.5,34.8,30.35,NE,53,13.0,15.0,83,0.00,,,0.01,WeatherCatV2.44B2,2018-01-24 00:11:00,
2018-01-23 16:16:00,39.4,34.7,30.34,ESE,110,2.0,9.0,83,0.00,,,0.01,WeatherCatV2.44B2,2018-01-24 00:16:00,
2018-01-23 16:26:00,39.2,34.5,30.34,SSW,209,2.0,8.0,83,0.00,,,0.01,WeatherCatV2.44B2,2018-01-24 00:26:00,
2018-01-23 16:31:00,39.1,34.7,30.34,SSE,147,5.0,11.0,84,0.00,,,0.01,WeatherCatV2.44B2,2018-01-24 00:31:00,
2018-01-23 16:36:00,39.0,34.6,30.34,SSE,165,4.0,9.0,84,0.00,,,0.01,WeatherCatV2.44B2,2018-01-24 00:36:00,
2018-01-23 16:41:00,38.8,34.4,30.34,SSE,159,4.0,9.0,84,0.00,,,0.01,WeatherCatV2.44B2,2018-01-24 00:41:00,
2018-01-23 16:46:00,38.7,34.3,30.34,SSE,164,5.0,12.0,84,0.00,,,0.01,WeatherCatV2.44B2,2018-01-24 00:46:00,
2018-01-23 16:51:00,38.7,34.3,30.34,ESE,111,1.0,9.0,84,0.00,,,0.01,WeatherCatV2.44B2,2018-01-24 00:51:00,
2018-01-23 16:56:00,38.6,34.5,30.34,SSE,153,4.0,6.0,85,0.00,,,0.01,WeatherCatV2.44B2,2018-01-24 00:56:00,